Terminal Aerodrome Forecast
Issued by NWS Tiyan, Guam

Home | Current Version | Previous Version | Text Only | Print | Product List | Glossary On
Versions: 1 2 3 4 5 6 7 8 9 10 11 12 13 14 15 16 17 18 19 20 21 22 23
000
FTPQ31 PGUM 010541
TAFGUM
TAF
PGUM 010541Z 0106/0212 03011G18KT P6SM FEW020
     FM010800 03010KT P6SM FEW020 SCT050=

USA.gov is the U.S. government's official web portal to all federal, state and local government web resources and services.